www.pogodaiklimat.ru

Погода и климат >> Архив погоды >> Китай >> Sanjianfang


ПОГОДА в Sanjianfang

  • Прогноз погоды в Sanjianfang
  • Монитор погоды в Sanjianfang
  • Климат города

АРХИВ ПОГОДЫ в Sanjianfang

Время (UTC), дата Ветер
(напр.,м/с)
 
Видим.   Явления Облачность Т
(С)
Тd
(С)
f
(%)
Тe
(С)
Тes
(С)
Комфортность P
(гПа)
Po
(гПа)
Тmin
(С)
Tmax
(С)
R
(мм)
R24
(мм)
S
(см)
18 11.10 С 11 26 км ?/? +15.1 -2.3 30 +13 +13 1015.5 1016.0 +22.6
21 11.10 С 12 25 км ?/? +14.5 -1.6 33 +12 +12 1014.9 1015.0
00 12.10 С 8 24 км ясно +13.4 -1.0 37 +11 +11 1016.5 1017.0
03 12.10 С 13 27 км ясно +17.8 -0.9 28 +16 +16 1017.2 1017.0
06 12.10 Ю 3 29 км ясно +20.1 -11.3 11 +20 +27 1016.3 1016.0 +13.2
09 12.10 З 1 28 км ясно +21.9 -8.8 12 +20 +24 1013.9 1014.0
12 12.10 Ю 2 30 км ясно +18.8 -11.2 12 +19 +19 1015.2 1015.0
18 12.10 С 4 30 км ?/? +14.2 -7.8 21 +13 +13 1014.1 1014.0 +22.1
21 12.10 С 2 30 км ?/? +12.7 -8.5 22 +12 +12 1013.4 1013.0
00 13.10 С 5 30 км 9/9
[]
+10.3 -9.9 23 +8 +8 1014.7 1015.0
03 13.10 Ю 2 30 км 9/9
[]
+16.6 -12.9 12 +17 +17 1015.3 1015.0
06 13.10 Ю 4 30 км 9/9
[]
+20.5 -12.2 10 +20 +20 1013.1 1013.0 +10.2
09 13.10 Ю 3 30 км 9/9
[]
+21.5 -14.1 8 +20 +20 1011.8 1012.0
12 13.10 В 3 30 км 9/9
[]
+17.8 -12.0 12 +18 +18 1012.8 1013.0
18 13.10 С 4 30 км ?/? +12.6 -13.4 15 +11 +11 1012.5 1013.0 +22.2
21 13.10 С 6 30 км н/о +13.2 -12.9 15 +11 +11 1012.5 1013.0
00 14.10 СВ 7 30 км ясно +12.0 -12.3 17 +10 +10 1014.1 1014.0
03 14.10 С 5 30 км 3/3
[]
+18.6 -12.4 11 +18 +19 1015.2 1015.0
06 14.10 Ю 3 28 км ясно +21.3 -12.8 9 +20 +26 1014.5 1015.0 +11.1
09 14.10 Ю 2 30 км 3/3
[]
+23.3 -12.8 8 +20 +22 1013.2 1013.0
12 14.10 С 13 23 км 9/9
[]
+17.8 -0.9 28 +16 +16 1016.0 1016.0
18 14.10 С 16
{23}
29 км ?/? +12.9 +0.3 42 +9 +9 1016.5 1017.0 +23.8
21 14.10 С 14 29 км н/о +11.8 -1.0 41 +8 +8 1016.5 1017.0
00 15.10 С 13
{22}
30 км 4/4
[]
+11.5 -2.0 39 +8 +8 1018.2 1018.0
03 15.10 С 13 28 км ясно +14.7 -2.2 31 +12 +12 1019.3 1019.0
06 15.10 Ю 5
{21}
29 км ясно +20.0 -6.6 16 +19 +24 1017.2 1017.0 +11.5
09 15.10 Ю 5 26 км ясно +21.5 -7.1 14 +20 +22 1014.1 1014.0
12 15.10 штиль 0 29 км ясно +17.8 -7.6 17 +18 +18 1014.7 1015.0
18 15.10 СЗ 1 30 км ?/? +14.7 -9.4 18 +16 +16 1013.5 1014.0 +22.0
21 15.10 В 4 30 км н/о +13.7 -10.2 18 +13 +13 1012.8 1013.0
00 16.10 В 2 30 км ясно +12.0 -9.1 22 +12 +12 1013.9 1014.0
03 16.10 ЮВ 1 29 км ясно +17.1 -8.9 16 +18 +22 1014.9 1015.0
06 16.10 Ю 5 30 км ясно +20.9 -7.6 14 +20 +24 1012.3 1012.0 +9.1
09 16.10 Ю 5 26 км ясно +22.5 -9.4 11 +20 +22 1010.1 1010.0
12 16.10 С 3 29 км 3/3
[]
+18.8 -9.2 14 +19 +19 1011.2 1011.0
18 16.10 С 12
{17}
23 км ?/? +12.2 -1.7 38 +9 +9 1009.9 1010.0 +22.8
21 16.10 С 11 28 км н/о +11.5 -3.0 36 +8 +8 1009.2 1009.0
00 17.10 С 14
{19}
28 км 6/6
[]
+10.3 -3.0 39 +6 +6 1009.1 1009.0
03 17.10 С 17 26 км 9/9
[]
+12.1 -2.1 37 +8 +8 1010.6 1011.0
06 17.10 С 22
{26}
23 км 9/9
[]
+14.6 -1.9 32 +11 +11 1009.1 1009.0 +10.1
09 17.10 С 27 15 км 9/9
[]
+11.3 -0.8 43 +6 +6 1010.2 1010.0
12 17.10 С 21
{34}
26 км 9/9
[]
+9.1 -0.5 51 +3 +3 1013.5 1014.0
18 17.10 С 25
{33}
30 км ?/? +6.5 -2.6 52 -1 -1 1017.2 1017.0 +14.9
21 17.10 С 22 30 км н/о +5.7 -3.9 50 -2 -2 1018.2 1018.0
00 18.10 С 23
{32}
30 км 9/9
[]
+5.2 -3.8 52 -3 -3 1019.0 1019.0
03 18.10 С 22 30 км 9/9
[]
+6.2 -5.4 43 -1 -1 1019.9 1020.0
06 18.10 С 22
{30}
30 км 9/9
[]
+6.8 -4.9 43 -0 -0 1019.5 1020.0 +5.2
09 18.10 С 16 30 км 9/9
[]
+7.3 -5.1 41 +1 +1 1018.6 1019.0
12 18.10 С 16
{25}
15 км 9/9
[]
+4.3 -1.7 65 -3 -3 1021.0 1021.0

 

Местоположение метеостанции Sanjianfang (Китай): широта 43.22 долгота 91.73 высота над уровнем моря 792 м.

В архиве по умолчанию представлена погода в Sanjianfang за последнюю неделю. Архивные данные за месяц целиком и за предыдущие месяцы, начиная с января 2011 года, Вы можете получить, выбрав интересующий диапазон дат из раскрывающегося списка и нажав кнопку "Ввод!".


*Определитесь, кто Вы:
робот инопланетянин человек

Внимание! Время в таблицах - всемирное. Для получения местного времени необходимо прибавить поправку, которая в Sanjianfang равна 8 ч.

Смотрите также архив погоды в соседних городах и на ближайших метеорологических станциях:

Погода в Hami (Китай) (152 км)
Погода в Qitai (Китай) (195 км)
Погода в Turpan (Китай) (208 км)
Погода в Beita Shan (Китай) (258 км)
Погода в Naomaohu (Китай) (278 км)
Погода в Baitag (Монголия) (323 км)
Погода в Urumqi (Китай) (335 км)
Погода в Tonhil (Монголия) (385 км)
Погода в Jargalant (Монголия) (415 км)
Погода в Dunhuang (Китай) (420 км)

Пояснения к столбцам:

Ветер - указаны скорость ветра в м/с - средняя за 10 мин, порывы в срок и между сроками (в фигурных скобках) и направление, откуда дует ветер: С - северный, СВ - северо-восточный, В - восточный, ЮВ - юго-восточный, Ю - южный, ЮЗ - юго-западный, З - западный, СЗ - северо-западный.
Видимость - горизонтальная дальность видимости в метрах или километрах. При видимости от 1 до 10 км при отсутствии осадков обычно наблюдается дымка, при ухудшении видимости до 1 км и менее - туман. В сухую погоду видимость может ухудшаться дымом, пылью или мглою.
Явления - указаны атмосферные явления, наблюдавшиеся в срок или в последний час перед сроком; фигурными скобками обозначены явления, наблюдавшиеся между сроками (за 1-3 часа до срока); квадратными скобками обозначены град или гололедные отложения с указанием их диаметра в мм.
Облачность - указаны через наклонную черту общая и нижняя облачность в баллах и высота нижней границы облаков в метрах; квадратными скобками обозначены формы облаков: Ci - перистые, Cs - перисто-слоистые, Cc - перисто-кучевые, Ac - высококучевые, As - высокослоистые, Sc - слоисто-кучевые, Ns - слоисто-дождевые, Cu - кучевые, Cb - кучево-дождевые. Подробнее классификацию облаков см. в Атласе облаков (PDF).
T - Температура воздуха - температура, измеренная на высоте 2 м над землей.
Td - Температура точки росы - температура, при понижении до которой содержащийся в воздухе водяной пар достигнет насыщения.
f - Относительная влажность воздуха - влажноcть воздуха, измеренная на высоте 2 м над землей.
Te - Эффективная температура - температура, которую ощущает одетый по сезону человек в тени. Характеристика душности погоды. При расчете учитывается влияние влажности воздуха и скорости ветра на теплоощущения человека.
Tes - Эффективная температура на солнце - температура, которую ощущает человек, с поправкой на солнечный нагрев. Характеристика знойности погоды. Зависит от высоты солнца над горизонтом, облачности и скорости ветра. Ночью, в пасмурную погоду, а также при ветре 12 м/с и более поправка равна нулю.
P - Атмосферное давление - приведенное к уровню моря атмосферное давление.
Po - Атмосферное давление - измеренное на уровне метеостанции атмосферное давление.
Tmin - Минимальная температура - минимум температуры воздуха на высоте 2 м над землей.
Tmax - Максимальная температура - максимум температуры воздуха на высоте 2 м над землей.
R - Количество осадков - Количество выпавших осадков за период времени, мм. При наведении курсора мыши на число - период времени, за который выпало указанное количество осадков.
R24 - Количество осадков - Количество выпавших осадков за 24 часа, мм.
S - Снежный покров - Высота снежного покрова, см. При наведении курсора мыши на число - состояние снежного покрова и степень покрытия местности в баллах.